Weather History for Alpena, MI

Change the Weather History Date:

Monday, August 26, 2013

  Actual Average Record
Temperature  
Mean Temperature 78 °F 64 °F  
Max Temperature 90 °F 76 °F 94 °F (1948)
Min Temperature 65 °F 52 °F 32 °F (1923)
Degree Days  
Heating Degree Days 0 3  
Month to date heating degree days 58 54  
Since 1 June heating degree days 247 241  
Since 1 July heating degree days 111 98  
Cooling Degree Days 13 2  
Month to date cooling degree days 68 70  
Year to date cooling degree days 274 255  
Since 1 June cooling degree days 261 242  
Growing Degree Days 30 (Base 50)    
Moisture  
Dew Point 68 °F    
Average Humidity 71    
Maximum Humidity 97    
Minimum Humidity 44    
Precipitation  
Precipitation 0.01 in 0.11 in 1.15 in (2006)
Month to date precipitation 1.03 2.69  
Year to date precipitation 21.52 18.24  
Sea Level Pressure  
Sea Level Pressure 29.97 in    
Wind  
Wind Speed 5 mph (West)    
Max Wind Speed 13 mph    
Max Gust Speed 18 mph    
Visibility 10 miles    
Events Rain , Thunderstorm    
T = Trace of Precipitation, MM = Missing Value Source: NWS Daily Summary

Daily Weather History Graph

Daily Weather History Graph

Search for Another Location

Airport:

Trip Planner

Search our weather history database for the weather conditions in past years. The results will help you decide how hot, cold, wet, or windy it might be!

Date:

Astronomy

Aug. 26, 2013 Rise Set
Actual Time 6:49 AM EDT 8:21 PM EDT
Civil Twilight 6:18 AM EDT 8:52 PM EDT
Nautical Twilight 5:41 AM EDT 9:29 PM EDT
Astronomical Twilight 5:00 AM EDT 10:09 PM EDT
Moon 11:12 PM EDT (8/26) 1:08 PM EDT (8/26)
Length of Visible Light 14h 34m
Length of Day
13h 32m
Waning Gibbous, 67% of the Moon is Illuminated
Aug 26
Waning Gibbous
Aug 28
Last Quarter
Sep 5
New
Sep 12
First Quarter
Sep 19
Full

Hourly Weather History & Observations

Time (EDT) Temp. Heat Index Dew Point Humidity Pressure Visibility Wind Dir Wind Speed Gust Speed Precip Events Conditions
12:54 AM 73.9 °F - 66.9 °F 79% 30.00 in 10.0 mi SW 5.8 mph - N/A   Partly Cloudy
1:54 AM 73.9 °F - 66.9 °F 79% 29.97 in 10.0 mi SW 5.8 mph - N/A   Clear
2:54 AM 73.0 °F - 66.9 °F 81% 29.97 in 10.0 mi WSW 3.5 mph - 0.00 in   Scattered Clouds
3:54 AM 73.9 °F - 66.9 °F 79% 29.97 in 10.0 mi SW 4.6 mph - N/A   Partly Cloudy
4:54 AM 70.0 °F - 66.9 °F 90% 29.96 in 9.0 mi South 5.8 mph - N/A   Clear
5:54 AM 75.0 °F - 66.0 °F 73% 29.95 in 10.0 mi SW 4.6 mph - N/A   Clear
6:54 AM 75.9 °F - 66.0 °F 71% 29.99 in 10.0 mi West 3.5 mph - N/A   Partly Cloudy
7:01 AM 75.2 °F - 66.2 °F 73% 30.01 in 10.0 mi West 4.6 mph - 0.00 in Rain , Thunderstorm Light Thunderstorms and Rain
7:31 AM 75.2 °F - 68.0 °F 78% 30.02 in 10.0 mi NW 10.4 mph - 0.00 in   Mostly Cloudy
7:46 AM 73.4 °F - 69.8 °F 88% 30.00 in 10.0 mi NW 5.8 mph - 0.00 in Rain , Thunderstorm Light Thunderstorms and Rain
7:54 AM 73.0 °F - 69.1 °F 87% 30.00 in 10.0 mi WNW 3.5 mph - 0.00 in Rain , Thunderstorm Light Thunderstorms and Rain
8:15 AM 73.4 °F - 69.8 °F 88% 30.00 in 10.0 mi NW 3.5 mph - 0.00 in   Partly Cloudy
8:54 AM 73.9 °F - 69.1 °F 85% 30.00 in 10.0 mi Calm Calm - 0.00 in   Partly Cloudy
9:54 AM 73.0 °F - 70.0 °F 90% 30.00 in 8.0 mi SSW 9.2 mph - 0.01 in Rain Light Rain
10:54 AM 73.9 °F - 69.1 °F 85% 29.99 in 10.0 mi South 4.6 mph - 0.00 in   Mostly Cloudy
11:54 AM 75.0 °F - 70.0 °F 84% 29.99 in 10.0 mi WSW 6.9 mph - N/A   Mostly Cloudy
12:54 PM 80.1 °F 82.9 °F 69.1 °F 69% 29.98 in 10.0 mi WSW 9.2 mph - N/A   Clear
1:54 PM 86.0 °F 89.4 °F 68.0 °F 55% 29.96 in 10.0 mi WNW 10.4 mph - N/A   Clear
2:54 PM 87.1 °F 89.2 °F 66.0 °F 49% 29.94 in 10.0 mi WNW 8.1 mph 18.4 mph N/A   Clear
3:54 PM 89.1 °F 90.3 °F 64.0 °F 43% 29.92 in 10.0 mi WNW 9.2 mph 17.3 mph N/A   Clear
4:54 PM 86.0 °F 91.5 °F 71.1 °F 61% 29.91 in 10.0 mi North 12.7 mph - N/A   Clear
5:54 PM 84.0 °F 88.4 °F 70.0 °F 63% 29.92 in 10.0 mi North 8.1 mph - N/A   Clear
6:54 PM 82.9 °F 86.5 °F 69.1 °F 63% 29.94 in 10.0 mi NNE 3.5 mph - N/A   Clear
7:54 PM 75.0 °F - 69.1 °F 82% 29.94 in 10.0 mi SSE 3.5 mph - N/A   Clear
8:54 PM 72.0 °F - 69.1 °F 91% 29.95 in 10.0 mi Calm Calm - N/A   Clear
9:54 PM 70.0 °F - 68.0 °F 93% 29.96 in 8.0 mi Calm Calm - N/A   Clear
10:54 PM 69.1 °F - 68.0 °F 96% 29.96 in 7.0 mi WSW 3.5 mph - N/A   Clear
11:54 PM 70.0 °F - 68.0 °F 93% 29.95 in 8.0 mi Calm Calm - N/A   Clear